Regional Weather Roundup
Issued by NWS Austin/San Antonio, TX

Current Version | Previous Version | Text Only | Print | Product List | Glossary On
Versions: 1 2 3 4 5 6 7 8 9 10 11 12 13 14 15 16 17 18 19 20 21 22 23 24 25 26 27 28 29 30 31 32 33 34 35 36 37 38 39 40 41 42 43 44 45 46 47 48 49 50
000
ASUS44 KEWX 171110
RWREWX
SOUTH TEXAS REGIONAL WEATHER ROUNDUP
NATIONAL WEATHER SERVICE AUSTIN/SAN ANTONIO TX
600 AM CDT THU JUN 17 2021

NOTE: "FAIR" INDICATED FEW OR NO CLOUDS BELOW 12,000 FEET WITH NO
SIGNIFICANT WEATHER AND/OR OBSTRUCTIONS TO VISIBILITY.

* - THESE STATIONS ARE NOT NWS OR FAA STATIONS...AND ARE NOT SUBJECT
    TO NWS AND FAA QUALITY CONTROL.

TXZ171-172-183>190-171200-
TEXAS HILL COUNTRY AND EDWARDS PLATEAU

CITY           SKY/WX    TMP DP  RH WIND       PRES   REMARKS
JUNCTION       CLEAR     65  61  87 CALM      30.07F
*LLANO         PTCLDY    66  64  94 CALM      30.02F
BURNET         CLEAR     72  66  81 CALM      30.05S
*HORSESHOE BAY CLEAR     70  66  89 CALM      30.04R
*LAGO VISTA    CLEAR     76  68  77 W5        30.04R
*KERRVILLE     CLEAR     66  64  91 CALM      30.06S
*FREDERICKSBRG CLEAR    N/A N/A N/A W3        30.06S
*ROCKSPRINGS     N/A     70  63  78 MISG      30.13S
*BOERNE        CLEAR     68  68 100 CALM      30.04S
*CASTROVILLE   CLEAR     74  71  90 NW3       30.02S
HONDO          CLEAR     70  67  90 N5        30.02R
*UVALDE        CLEAR     68  68  99 NE3       30.04S
DEL RIO        CLEAR     77  64  64 NE7       30.01R
*LAUGHLIN AFB  CLEAR     70  63  77 NE7       30.01S
*SPOFFORD      CLEAR     70  65  85 NE5       29.95S
*EAGLE PASS    CLEAR     72  61  68 NE6       30.00R
CARRIZO SPRGS  CLEAR    N/A N/A N/A CALM      29.97S
$$

TXZ173-191>194-202-209-217>225-228-171200-
CENTRAL AND SOUTH CENTRAL TEXAS

CITY           SKY/WX    TMP DP  RH WIND       PRES   REMARKS
GEORGETOWN     CLEAR     72  68  87 S3        30.03S
*TAYLOR        CLEAR     70 N/A N/A CALM      30.01R
AUSTIN/BERGSTM CLEAR     71  70  96 SW3       30.00R
AUSTIN/MABRY   CLEAR     74  68  81 CALM      30.01S
*PFLUGERVILLE  CLEAR     75  70  83 CALM      30.00R
SAN MARCOS     CLEAR     72  72 100 NW5       30.01R
NEW BRAUNFELS  CLEAR     73  69  87 N5        29.99S
*RANDOLPH AFB  CLEAR     72  69  91 NW5       29.98F
*SEGUIN        CLEAR     72  69  92 CALM      30.03S
SAN ANTONIO    CLEAR     74  68  81 W5        30.00F
STINSON FIELD  CLEAR     77  32  19 CALM      29.97F
*KELLY FIELD   CLEAR     73  70  88 CALM      29.98S
*PLEASANTON    CLEAR     73  69  89 CALM      29.99S
*KENEDY        CLEAR     71  69  94 CALM      29.98S
*LA GRANGE     CLEAR     76  76 100 CALM      29.97S
*GIDDINGS      PTCLDY    74  71  91 CALM      30.01S
*GONZALES      CLEAR     74  73  96 CALM      29.99S
$$

TXZ163>164-176>182-195>201-210>213-226-227-235-171200-
SOUTHEAST TEXAS

CITY           SKY/WX    TMP DP  RH WIND       PRES   REMARKS
COLLEGE STN    CLEAR     78  72  81 CALM      29.99S
*BRYAN         CLEAR     77  73  90 W5        30.00S
*CALDWELL      CLEAR     75  72  91 NW3       30.00S
*CROCKETT      CLEAR     73  73 100 CALM      29.99S
*BRENHAM       CLEAR     76  75  97 CALM      30.00S
HUNTSVILLE     CLEAR     77  72  84 CALM      29.99S
CONROE         CLEAR     72  71  97 CALM      29.99S FOG
HOUSTON BUSH   PTCLDY    78  72  81 N3        29.97S
HOUSTON HOBBY  PTCLDY    80  70  71 N8        29.96S
*HOUSTON SW AP CLEAR     76  73  89 CALM      29.98S
PEARLAND       CLEAR     78  72  81 N5        29.98R
HOUSTON HOOKS  CLEAR     75  72  90 CALM      29.98S
ELLINGTON FLD  PTCLDY    79  73  83 N6        29.96S
SUGAR LAND     CLEAR     76  73  91 N5        29.97S
*HOUSTON EXEC    N/A     75  75 100 CALM      29.99S
*CLEVELAND MUN PTCLDY    73  73 100 CALM      30.00R FOG
*WHARTON       CLEAR     74  73  95 CALM      29.98R FOG
*COLUMBUS      FAIR      76  74  94 CALM      29.99S
*EAGLE LAKE    NOT AVBL
$$

TXZ214>216-236>238-171200-
THE UPPER TEXAS COAST

CITY           SKY/WX    TMP DP  RH WIND       PRES   REMARKS
*ORANGE        CLEAR     73  70  89 CALM      29.99R
PORT ARTHUR    CLEAR     77  71  82 NE7       29.96S
GALVESTON      MOCLDY    84  77  79 N8        29.96R HX  94
ANGLETON       CLEAR     74  72  93 N6        29.96R FOG
*BAY CITY      CLEAR     74  74  98 N5        29.96S FOG
PALACIOS       CLEAR     75  74  96 N5        29.95R
$$

TXZ229>234-239>247-171200-
TEXAS COASTAL BEND AND RIO GRANDE PLAINS

CITY           SKY/WX    TMP DP  RH WIND       PRES   REMARKS
VICTORIA       CLEAR     75  72  90 N5        29.97R
*BEEVILLE      CLEAR     73  73 100 N5        29.96R
ROCKPORT       CLEAR    N/A N/A N/A N5        29.94R
*PORT ARANSAS  CLEAR     80  76  87 N6        29.95S
*PORT LAVACA   CLEAR     76  73  90 N3        29.96S
*INGLESIDE     CLEAR     77  74  92 CALM      29.93S
CORPUS CHRISTI PTCLDY    75  74  96 N7        29.94R
CORPUS NAS     PTCLDY    82  76  81 N9        29.93R
*ROBSTOWN      CLEAR     76  74  95 N7        29.94S
ALICE          CLEAR     73  71  93 NW5       29.94S
KINGSVILLE NAS CLEAR     74  73  97 N6        29.93S
COTULLA        CLEAR     74  66  76 NE5       29.97S
LAREDO         CLEAR     74  68  81 NE3       29.96R
$$

TXZ248>255-171200-
DEEP SOUTH TEXAS

CITY           SKY/WX    TMP DP  RH WIND       PRES   REMARKS
BROWNSVILLE    MOCLDY    77  72  84 CALM      29.90R
PORT ISABEL    PTCLDY    77  74  90 N7        29.91R
HARLINGEN      PTCLDY    73  73 100 N6        29.91R
*HEBBRONVILLE  CLEAR     70  63  78 CALM      29.98S
MCALLEN        CLEAR     75  72  90 NW3       29.92F
*WESLACO       MOCLDY    73  72  96 CALM      29.92R
FALFURRIAS     CLEAR     69  69  99 CALM      29.93S
EDINBURG       PTCLDY    72  72 100 N6        29.93S FOG
*ZAPATA        PTCLDY    74  68  82 CALM      29.96S
$$

TXZ213>215-236>238-242>244-246-247-251-254-255-171200-
CMAN STATIONS

STATION/POSITION TIME  TEMP    WIND        PRES    WAVE
                       AIR SEA DIR/SP/G            HT/PER
                 (UTC) (F)     (DEG/KT/KT) (MB)    (FT/S)
NORTH JETTY/GLS  1030   83 85   30/ 11/ 12 1013.1
EAGLE POINT      1030   83 87  350/  5/  8 1013.9
MORGANS POINT    1030   80 85  360/  4/  5 1014.8
MISSION/ARANSAS  1000   80     350/  6     1015.0
PORT O`CONNOR    1030   81 89   10/ 12/ 13 1013.8
PORT ARANSAS     1100   81 85  360/  7/  8   N/A
MALAQUITE BEACH  1030   81     350/  8/  9   N/A
BAFFIN BAY       1030   80 89  320/  7/  8 1012.8
PORT ISABEL      1030   82 85   10/  7/  9 1013.3
$$



USA.gov is the U.S. government's official web portal to all federal, state and local government web resources and services.